Regional Weather Roundup
Issued by NWS

Home | Current Version | Previous Version | Graphics & Text | Print | Product List | Glossary Off
Versions: 1 2 3 4 5 6 7 8 9 10 11 12 13 14 15 16 17 18 19 20 21 22 23 24 25 26 27 28 29 30 31 32 33 34 35 36 37 38 39 40 41 42 43 44 45 46 47 48 49 50

000
ASUS43 KFSD 230102
RWRSD

WEATHER ROUNDUP FOR SOUTH DAKOTA
NATIONAL WEATHER SERVICE SIOUX FALLS SD
700 PM CST THU FEB 22 2018

NOTE: "FAIR" INDICATES FEW OR NO CLOUDS BELOW 12,000 FEET WITH NO
SIGNIFICANT WEATHER AND/OR OBSTRUCTIONS TO VISIBILITY.


SDZ001>005-009-010-012>017-230200-
NORTHWEST AND NORTH CENTRAL SOUTH DAKOTA

CITY           SKY/WX    TMP DP  RH WIND       PRES   REMARKS
BUFFALO          N/A     11   3  70 NW3       30.03R
FAITH            N/A      5   2  87 NE7       30.11R WCI  -7
MOBRIDGE       LGT SNOW  22  19  89 SE5       30.15S VSB 3/4 WCI  16
$$

SDZ012>016-024>037-041>051-057-063-072>074-230200-
SOUTHWEST AND SOUTH CENTRAL SOUTH DAKOTA

CITY           SKY/WX    TMP DP  RH WIND       PRES   REMARKS
RAPID CTY ARPT MOCLDY     6  -1  73 NW9       30.07R WCI  -8
PIERRE         LGT SNOW  21  20  96 SE5       30.15S VSB 1   WCI  15
CUSTER         PTCLDY    21   9  59 S6        29.92R WCI  13
ELLSWORTH AFB  MOCLDY     6   0  75 NW8       30.05R WCI  -7
PHILIP         LGT SNOW   9   7  92 N10       30.13S FOG     WCI  -5
PINE RIDGE     CLOUDY    19  17  92 NE5       30.03S WCI  12
SPEARFISH        N/A     12   5  73 W9        30.03R WCI   0
WINNER         LGT SNOW  23  19  85 SE5       30.11F FOG     WCI  17
$$

SDZ004>011-016>023-039-040-230200-
NORTHEAST SOUTH DAKOTA

CITY           SKY/WX    TMP DP  RH WIND       PRES   REMARKS
ABERDEEN       LGT SNOW  25  23  92 E3        30.23S VSB 3/4
WATERTOWN      LGT SNOW  20  18  92 E8        30.18R FOG     WCI  10
BROOKINGS      LGT SNOW  22  20  92 E13       30.18S FOG     WCI  10
SISSETON         N/A     22  21  96 E3        30.25F
$$

SDZ017-020-022-023-036>040-048>070-230200-
SOUTHEAST SOUTH DAKOTA

CITY           SKY/WX    TMP DP  RH WIND       PRES   REMARKS
SIOUX FALLS    SNOW      25  23  92 SE6       30.18S VSB 1/2 WCI  18
HURON          LGT SNOW  23  22  96 SE3       30.20R FOG
CHAMBERLAIN    LGT SNOW  22  22  98 CALM      30.15F
MITCHELL       LGT SNOW  23  21  92 CALM      30.19F FOG
YANKTON        LGT SNOW  24  22  91 CALM      30.20R FOG
$$

ABBREVIATIONS USED IN REMARKS
   TC - TEMPERATURE IN CELSIUS
  WCI - WIND CHILL INDEX
   HX - HEAT INDEX
  VSB - VISIBILITY





USA.gov is the U.S. government's official web portal to all federal, state and local government web resources and services.